[[{"header":{"parameterUnit":"m.s-1","parameterCategory":1,"la1":30.2991,"la2":30.254,"lo1":-89.0895,"lo2":-89.0444,"dy":0.0017,"dx":0.0017,"nx":28,"ny":28,"refTime":"2024-04-15T03:00:00:Z","depth":0,"parameterNumber":2,"parameterNumberName":"U-component_of_WINDS"},"data":[0,0,0,0,0,0,0,0,0,0,0,0,0,0,0,0,0,0,0,0,0,0,0,0,0,0,0,0,0,0,0,0,0,0,0,0,0,0,0,0,0,0,0,0,0,0,0,0,0,0,0,0,0,0,0,0,0,0,-0.6631,-0.663,0,-0.6541,-0.654,-0.6539,-0.6471,-0.647,-0.647,-0.6469,-0.6378,-0.6376,-0.6374,0,0,0,0,0,0,0,0,0,0,0,0,0,-0.6745,-0.6743,-0.6631,-0.663,-0.6629,-0.6541,-0.654,-0.6539,-0.6471,-0.647,-0.647,-0.6469,-0.6378,-0.6376,-0.6374,0,0,0,0,0,0,0,0,0,0,0,0,0,-0.668,-0.6743,-0.6631,-0.6585,-0.6579,-0.6542,-0.654,-0.6539,-0.6471,-0.647,-0.6469,-0.6468,-0.6379,-0.6376,-0.6374,-0.6375,0,0,-0.6365,-0.6364,0,0,0,0,0,0,0,0,-0.6683,-0.6675,-0.6593,-0.6588,-0.6582,-0.6516,-0.6547,-0.6484,-0.6471,-0.6512,-0.6469,-0.6468,-0.6425,-0.6418,-0.6403,-0.6371,-0.6367,-0.6365,-0.6363,-0.6362,-0.6361,0,0,0,0,0,0,0,-0.6688,-0.6679,-0.6596,-0.6591,-0.6585,-0.6568,-0.6558,-0.6535,-0.6475,-0.6509,-0.6504,-0.6494,-0.6421,-0.6406,-0.6401,-0.6366,-0.6365,-0.6362,-0.6361,-0.636,-0.6331,-0.6332,0,0,0,0,0,0,-0.67,-0.6683,-0.6598,-0.6593,-0.6631,-0.6567,-0.6555,-0.6538,-0.6475,-0.6464,-0.6495,-0.6491,-0.6411,-0.6404,-0.6397,-0.6395,-0.6362,-0.6359,-0.6358,-0.633,-0.6331,-0.6332,0,0,0,0,0,0,-0.6702,-0.6693,-0.6602,-0.6637,-0.6624,-0.6566,-0.6547,-0.6537,-0.6522,-0.6464,-0.6453,-0.649,-0.641,-0.6401,-0.6381,-0.6391,-0.6358,-0.6356,-0.6329,-0.6331,-0.6332,-0.6392,0,0,0,0,0,0,-0.6706,-0.6694,-0.6694,-0.6637,-0.6622,-0.6588,-0.6548,-0.6536,-0.6517,-0.6511,-0.6457,-0.6447,-0.6409,-0.6386,-0.6379,-0.6387,-0.6353,-0.6328,-0.633,-0.6331,-0.6389,-0.6395,-0.6401,0,0,0,0,0,-0.671,-0.6715,-0.6694,-0.6685,-0.6621,-0.6588,-0.658,-0.6536,-0.6518,-0.6518,-0.6481,-0.6449,-0.6391,-0.6384,-0.6376,-0.6383,-0.6327,-0.6329,-0.6331,-0.6386,-0.6394,-0.6401,0,0,0,0,0,0,-0.6774,-0.6706,-0.6683,-0.6669,-0.6635,-0.6577,-0.6575,-0.6545,-0.6516,-0.6512,-0.6458,-0.6447,-0.6433,-0.6406,-0.6399,-0.6382,-0.6355,-0.6356,-0.64,-0.6407,-0.6413,-0.642,-0.6351,0,0,0,0,0,-0.6787,-0.6766,-0.6708,-0.6701,-0.6685,-0.6633,-0.6618,-0.6586,-0.6549,-0.6535,-0.6496,-0.6462,-0.6436,-0.642,-0.6393,-0.6385,-0.6372,-0.6386,-0.6392,-0.6397,-0.6398,-0.6392,-0.6398,-0.6339,-0.6339,-0.6339,0,0,-0.6812,-0.6773,-0.6763,-0.6713,-0.6683,-0.6663,-0.6622,-0.6602,-0.6587,-0.6531,-0.6511,-0.6482,-0.6439,-0.6426,-0.6418,-0.6403,-0.6411,-0.6399,-0.6404,-0.6402,-0.6395,-0.6401,-0.6406,-0.634,-0.634,-0.634,0,0,-0.6849,-0.6816,-0.6807,-0.6778,-0.6733,-0.6699,-0.6697,-0.6643,-0.6622,-0.66,-0.6559,-0.654,-0.6496,-0.6468,-0.6448,-0.6475,-0.6444,-0.6467,-0.6498,-0.6494,-0.6498,-0.6502,-0.6512,-0.6516,-0.6469,-0.6469,-0.6469,0,-0.6886,-0.6854,-0.6807,-0.679,-0.6769,-0.6718,-0.6709,-0.6683,-0.6632,-0.6619,-0.6603,-0.6548,-0.6516,-0.6495,-0.6502,-0.6487,-0.6484,-0.6473,-0.6501,-0.6505,-0.6508,-0.6517,-0.652,-0.6472,-0.6471,-0.6471,-0.6471,0,-0.6903,-0.6881,-0.688,-0.6831,-0.6811,-0.6798,-0.6749,-0.6734,-0.6705,-0.6672,-0.6651,-0.6611,-0.6575,-0.6568,-0.6539,-0.6543,-0.6536,-0.6511,-0.6483,-0.6517,-0.6525,-0.6528,-0.6476,-0.6475,-0.6474,-0.6474,0,0,-0.6977,-0.6903,-0.6903,-0.6881,-0.6828,-0.6811,-0.6796,-0.6761,-0.6749,-0.6716,-0.6702,-0.6667,-0.6644,-0.6621,-0.6589,-0.6585,-0.6609,-0.6561,-0.6559,-0.6572,-0.6612,-0.6631,-0.6636,-0.6589,-0.6589,-0.659,-0.6616,0,-0.7006,-0.6976,-0.6933,-0.6917,-0.6897,-0.6849,-0.6836,-0.6802,-0.6772,-0.675,-0.6716,-0.6693,-0.6664,-0.665,-0.6644,-0.6608,-0.6617,-0.6605,-0.6576,-0.6576,-0.6589,-0.664,-0.666,-0.6687,-0.6619,-0.6619,-0.6619,0,-0.7035,-0.7004,-0.6987,-0.6936,-0.6926,-0.6915,-0.688,-0.686,-0.6821,-0.6799,-0.6774,-0.6739,-0.6722,-0.6697,-0.6672,-0.6665,-0.665,-0.6631,-0.6631,-0.6627,-0.66,-0.6638,-0.6694,-0.6698,-0.6623,-0.6623,-0.6623,0,-0.7091,-0.7046,-0.7029,-0.7012,-0.6952,-0.6945,-0.692,-0.688,-0.6862,-0.6832,-0.6819,-0.6787,-0.677,-0.6746,-0.6704,-0.6689,-0.6684,-0.6655,-0.6665,-0.6667,-0.6667,-0.6667,-0.6722,-0.6657,-0.6657,-0.6657,-0.6657,0,-0.7128,-0.7119,-0.7054,-0.7044,-0.7033,-0.6984,-0.6975,-0.6945,-0.6911,-0.6894,-0.6851,-0.6837,-0.6781,-0.6761,-0.6727,-0.6712,-0.6705,-0.6687,-0.6678,-0.6691,-0.6693,-0.6681,-0.6678,-0.6658,-0.6658,-0.6657,-0.6657,0,-0.7189,-0.7145,-0.7124,-0.7069,-0.7055,-0.705,-0.7003,-0.6992,-0.6959,-0.6939,-0.6932,-0.688,-0.6854,-0.6809,-0.677,-0.6747,-0.6739,-0.6724,-0.6752,-0.6747,-0.6761,-0.676,-0.681,-0.6814,-0.6746,-0.6747,-0.6747,0,-0.7216,-0.7208,-0.7152,-0.7138,-0.7115,-0.7092,-0.7074,-0.7025,-0.7008,-0.6964,-0.6958,-0.6928,-0.6902,-0.6863,-0.6822,-0.6792,-0.6776,-0.6795,-0.6771,-0.6784,-0.6777,-0.6778,-0.6777,-0.6801,-0.6802,-0.6803,-0.6803,0,-0.7268,-0.7246,-0.7221,-0.7188,-0.7167,-0.7139,-0.7109,-0.71,-0.7045,-0.7027,-0.7,-0.698,-0.694,-0.6911,-0.6876,-0.685,-0.6818,-0.6811,-0.6812,-0.6826,-0.6843,-0.6834,-0.6768,-0.6811,-0.681,-0.6809,-0.6809,-0.6809,-0.7312,-0.7303,-0.7263,-0.7236,-0.7209,-0.7181,-0.7169,-0.7134,-0.711,-0.7074,-0.7047,-0.7022,-0.6984,-0.6932,-0.6909,-0.6888,-0.6874,-0.6875,-0.6875,-0.6877,-0.6882,-0.6846,-0.6882,-0.6881,-0.6881,-0.6881,-0.6881,0,-0.7362,-0.7334,-0.731,-0.7269,-0.7248,-0.722,-0.7185,-0.717,-0.7148,-0.7115,-0.709,-0.7059,-0.7031,-0.6989,-0.6957,-0.695,-0.6934,-0.6943,-0.6944,-0.6938,-0.6896,-0.6899,-0.6956,-0.6956,-0.6956,-0.6956,-0.6956,-0.6956,-0.7386,-0.737,-0.7344,-0.7313,-0.7285,-0.726,-0.7243,-0.7218,-0.7191,-0.7158,-0.7135,-0.7107,-0.707,-0.7036,-0.701,-0.6998,-0.6989,-0.7003,-0.6986,-0.6948,-0.6941,-0.6934,-0.6937,-0.7001,-0.7001,-0.703,-0.703,-0.703]},{"header":{"parameterUnit":"m.s-1","parameterCategory":1,"la1":30.2991,"la2":30.254,"lo1":-89.0895,"lo2":-89.0444,"dy":0.0017,"dx":0.0017,"nx":28,"ny":28,"refTime":"2024-04-15T03:00:00:Z","depth":0,"parameterNumber":3,"parameterNumberName":"V-component_of_WINDS"},"data":[0,0,0,0,0,0,0,0,0,0,0,0,0,0,0,0,0,0,0,0,0,0,0,0,0,0,0,0,0,0,0,0,0,0,0,0,0,0,0,0,0,0,0,0,0,0,0,0,0,0,0,0,0,0,0,0,0,0,2.3524,2.3524,0,2.3475,2.3474,2.3474,2.3488,2.3489,2.349,2.3491,2.3434,2.3431,2.3429,0,0,0,0,0,0,0,0,0,0,0,0,0,2.3624,2.3622,2.3524,2.3524,2.3523,2.3475,2.3474,2.3474,2.3488,2.3489,2.349,2.3491,2.3434,2.3431,2.3428,0,0,0,0,0,0,0,0,0,0,0,0,0,2.3578,2.3622,2.3524,2.3524,2.3524,2.3475,2.3474,2.3473,2.3487,2.3489,2.349,2.3492,2.3435,2.3432,2.3428,2.3374,0,0,2.3417,2.3415,0,0,0,0,0,0,0,0,2.3581,2.3575,2.3525,2.3524,2.3524,2.3489,2.3489,2.344,2.3487,2.3501,2.3491,2.3493,2.345,2.3446,2.3433,2.3371,2.3369,2.3416,2.3414,2.3412,2.3411,0,0,0,0,0,0,0,2.3584,2.3577,2.3504,2.3524,2.3523,2.3525,2.352,2.3479,2.3467,2.35,2.3501,2.3495,2.345,2.3436,2.3431,2.3368,2.3416,2.3413,2.3411,2.3409,2.326,2.3258,0,0,0,0,0,0,2.3589,2.3579,2.3506,2.3503,2.3557,2.3522,2.3516,2.3499,2.3468,2.3465,2.3494,2.3496,2.3442,2.3436,2.3429,2.3364,2.3413,2.3409,2.3407,2.3262,2.326,2.3258,0,0,0,0,0,0,2.3591,2.3582,2.3508,2.3541,2.3532,2.3518,2.3498,2.3497,2.3483,2.3464,2.3461,2.3482,2.3443,2.3435,2.3388,2.3363,2.3407,2.3404,2.3264,2.3261,2.3259,2.3234,0,0,0,0,0,0,2.3594,2.3583,2.3563,2.3541,2.353,2.3469,2.3497,2.3495,2.3477,2.3479,2.3452,2.3449,2.3443,2.3394,2.3385,2.3358,2.3401,2.3266,2.3263,2.326,2.3237,2.3231,2.3225,0,0,0,0,0,2.3597,2.3557,2.3562,2.3553,2.3506,2.3468,2.3462,2.3458,2.3475,2.3455,2.3442,2.3449,2.3367,2.3389,2.3379,2.3351,2.3268,2.3264,2.326,2.3239,2.3232,2.3226,0,0,0,0,0,0,2.3574,2.3554,2.356,2.3512,2.3492,2.347,2.3445,2.3451,2.3424,2.3427,2.3422,2.3415,2.3368,2.3355,2.3379,2.3297,2.3319,2.3313,2.3307,2.33,2.3295,2.3298,2.3398,0,0,0,0,0,2.3564,2.3536,2.3519,2.3478,2.3468,2.3458,2.3441,2.3441,2.3419,2.341,2.3394,2.3371,2.334,2.3319,2.329,2.3235,2.3229,2.3211,2.3205,2.3201,2.3195,2.3165,2.3157,2.3245,2.3245,2.3245,0,0,2.3541,2.3527,2.3509,2.3473,2.3458,2.3428,2.3451,2.3418,2.3395,2.3404,2.336,2.3348,2.3321,2.3271,2.3248,2.3258,2.317,2.3196,2.3192,2.3189,2.316,2.3152,2.3145,2.3242,2.3243,2.3243,0,0,2.3485,2.3472,2.3437,2.3421,2.3399,2.3392,2.3384,2.3362,2.3355,2.3311,2.3318,2.3289,2.3236,2.3217,2.32,2.3138,2.3143,2.3128,2.3098,2.3069,2.3062,2.3056,2.3033,2.3025,2.3123,2.3123,2.3123,0,2.346,2.3417,2.3417,2.3384,2.3367,2.3377,2.334,2.3324,2.3292,2.3279,2.3292,2.3226,2.3209,2.3154,2.314,2.3126,2.3115,2.3131,2.3063,2.3057,2.3051,2.3029,2.3021,2.3121,2.3121,2.3121,2.3122,0,2.3386,2.3356,2.333,2.3301,2.3282,2.3247,2.324,2.322,2.3221,2.3213,2.3168,2.3148,2.3115,2.3101,2.3101,2.3046,2.3054,2.3065,2.3087,2.3041,2.3021,2.3012,2.3119,2.3119,2.312,2.312,0,0,2.3313,2.3287,2.3277,2.3264,2.324,2.3216,2.3181,2.3151,2.3133,2.311,2.308,2.3035,2.3046,2.3027,2.3025,2.2999,2.2951,2.3014,2.3013,2.3002,2.2889,2.288,2.2871,2.2955,2.2953,2.2952,2.2891,0,2.3255,2.3196,2.3196,2.3141,2.3112,2.3122,2.3091,2.3072,2.3063,2.3036,2.3026,2.2994,2.3011,2.3,2.2975,2.2962,2.2928,2.2967,2.2925,2.2923,2.2931,2.286,2.2851,2.2794,2.2883,2.2882,2.2881,0,2.3179,2.3157,2.31,2.3081,2.3069,2.3041,2.3014,2.2989,2.2967,2.2962,2.2942,2.2944,2.2906,2.2931,2.2878,2.2904,2.2887,2.2878,2.2876,2.2871,2.2899,2.2853,2.2776,2.2768,2.2868,2.2869,2.287,0,2.3132,2.3087,2.3047,2.3036,2.3013,2.2993,2.2982,2.2962,2.2944,2.2919,2.2907,2.2877,2.286,2.2836,2.2829,2.2848,2.2777,2.2801,2.2771,2.2771,2.2755,2.2756,2.2674,2.2744,2.2744,2.2745,2.2745,0,2.3067,2.3031,2.3026,2.3001,2.2961,2.296,2.292,2.291,2.2892,2.2865,2.287,2.2843,2.2836,2.2807,2.2801,2.2759,2.2751,2.2745,2.2744,2.2745,2.2745,2.2733,2.2736,2.2742,2.2743,2.2743,2.2744,0,2.3006,2.3002,2.2959,2.2941,2.2936,2.2907,2.2891,2.2866,2.2859,2.2823,2.2815,2.2802,2.2769,2.2761,2.272,2.2716,2.2666,2.2668,2.2674,2.2674,2.2644,2.2647,2.2551,2.2538,2.2617,2.2617,2.2616,0,2.2965,2.2939,2.2918,2.2902,2.289,2.2862,2.2845,2.2842,2.2823,2.2797,2.2775,2.2743,2.2718,2.2664,2.265,2.2619,2.262,2.2589,2.2615,2.2617,2.2619,2.2621,2.2618,2.2583,2.2582,2.2582,2.2581,0,2.2892,2.2892,2.2867,2.2842,2.2821,2.2801,2.2781,2.2766,2.276,2.2738,2.2706,2.2686,2.2646,2.2614,2.2583,2.2569,2.2573,2.2573,2.2564,2.2565,2.2569,2.2566,2.266,2.2575,2.2576,2.2576,2.2576,2.2577,2.284,2.2817,2.28,2.2772,2.2757,2.2739,2.2716,2.2706,2.268,2.2649,2.2648,2.2613,2.2591,2.255,2.2535,2.2506,2.2515,2.2502,2.2499,2.2496,2.2494,2.2574,2.25,2.25,2.25,2.25,2.25,0,2.2767,2.2757,2.2732,2.2705,2.2683,2.2692,2.2671,2.2651,2.2621,2.2601,2.2576,2.2539,2.2508,2.2492,2.2461,2.244,2.2441,2.2432,2.2433,2.243,2.2487,2.2498,2.2432,2.2432,2.2432,2.2432,2.2432,2.2432,2.2727,2.2688,2.2686,2.2639,2.2629,2.2596,2.2583,2.2565,2.255,2.2509,2.2484,2.2475,2.2456,2.2424,2.2395,2.2391,2.2379,2.2368,2.2365,2.2419,2.2426,2.2432,2.2442,2.2366,2.2366,2.231,2.231,2.2309]}]]